Location: Newark
(25.6108°S, 54.5803°W)
Time: 07:35:00
(UTC+00:00)

Courier 1B - Pass Details

Date: 03 November 2020
Orbit: 962 x 1209 km, 28.3° (Epoch: 02 December)

Event Time Altitude Azimuth Distance (km) Brightness Sun altitude
Rises 01:22:55 0° 272° (W) 3,883 11.0 -40.0°
Reaches altitude 10° 01:25:37 10° 270° (W) 2,963 10.3 -40.4°
Enters shadow 01:28:58 30° 264° (W) 1,895 9.2 -40.8°
Maximum altitude 01:32:59 74° 185° (S) 1,197 - -41.4°
Drops below altitude 10° 01:40:46 10° 100° (E) 3,124 - -42.4°
Sets 01:43:41 0° 98° (E) 4,104 - -42.7°
